User: anonymous   Login
Location: Unspecified
(0.0000°N, 0.0000°E)
Time: 10:47:59
(UTC+01:00)
Language:

YAOGAN 3 - Orbit

View from above orbital plane
View from above orbital plane
View from above satellite
View from above satellite

Ground track
Ground track

The orbit data is extracted from the following two-line orbital elements,

1 32289U 07055A   16042.77067054  .00000752  00000-0  10467-3 0  9995
2 32289  97.9795  40.5255 0001846  88.4602 271.6811 14.80666005446017
Epoch (UTC): 11 February 2016 18:29:45
Eccentricity: 0.0001846
inclination: 97.9795°
perigee height: 626 km
apogee height: 628 km
right ascension of ascending node: 40.5255°
argument of perigee: 88.4602°
revolutions per day: 14.80666005
mean anomaly at epoch: 271.6811°
orbit number at epoch: 44601

The dashed part of the orbit path shows where the satellite is in the earth's shadow,  

DLR